Location: Draisendorf
(49.8599°N, 11.2503°E)
Time: 00:41:26
(UTC+00:00)

Daily predictions for brighter satellites

Satellite Brightness Start Highest point End
(mag) Time Altitude Azimuth Time Altitude Azimuth Time Altitude Azimuth
SL-16 R/B 3.4 00:12:20 45° NNE 00:12:20 45° NNE 00:17:02 10° N
Cosmos 1943 Rocket 3.9 00:17:17 27° NNW 00:17:17 27° NNW 00:20:36 10° NNE
CZ-2D R/B 3.8 00:17:48 10° NNE 00:20:45 27° NE 00:20:45 27° NE
ATLAS 5 CENTAUR R/B 4.4 00:26:24 14° ENE 00:26:24 14° ENE 00:27:13 10° NE
Cosmos 2297 Rocket 3.5 00:24:51 10° NNW 00:28:49 37° NNE 00:28:49 37° NNE
Resurs 1-4 Rocket 3.6 00:31:43 10° NNE 00:34:54 33° NE 00:34:54 33° NE
Cosmos 2369 Rocket 3.8 00:41:05 28° NNW 00:41:05 28° NNW 00:44:48 10° NNE
Gbstr 26 Del rocket 4.5 00:44:54 80° N 00:44:54 80° N 00:52:40 10° E
CZ-4C R/B 4.0 00:47:10 25° NW 00:48:37 27° NNW 00:54:18 10° NE
USA 267 4.3 00:50:02 10° ENE 00:54:57 34° ESE 00:54:57 34° ESE
SL-8 Rocket 4.3 01:07:08 10° N 01:12:13 60° NNW 01:12:13 60° NNW
Cosmos 2218 Rocket 4.1 01:18:22 10° N 01:24:06 72° NNW 01:24:06 72° NNW
Cosmos 2366 rocket 4.0 01:20:58 10° N 01:26:34 72° NNW 01:26:34 72° NNW
Cosmos 2227 Rocket 3.2 01:21:47 10° NNW 01:25:13 38° NNW 01:25:13 38° NNW
Cosmos 1656 4.1 01:30:38 53° E 01:30:38 53° E 01:35:33 10° NE
Lacrosse 5 3.6 01:32:48 25° ESE 01:32:48 25° ESE 01:36:05 10° ENE
USA 234 3.2 01:26:20 10° ESE 01:32:52 79° NNE 01:37:43 20° NW
ADEOS II 2.3 01:33:33 10° NNE 01:38:27 65° ENE 01:38:27 65° ENE
CZ-4B R/B 3.8 01:36:18 10° NNE 01:40:48 67° NE 01:40:48 67° NE
SL-08 R/B 3.7 01:47:13 58° NE 01:47:13 58° NE 01:51:17 10° N
Cosmos 2181 Rocket 4.0 01:47:57 62° WNW 01:47:57 62° WNW 01:53:44 10° N
SL-08 R/B 4.4 01:42:05 10° N 01:48:31 89° W 01:49:27 68° S
Cosmos 1633 Rocket 4.2 01:46:05 10° N 01:48:58 40° N 01:48:58 40° N
IDEFIX/ARIANE 42P 3.8 01:46:50 10° NNE 01:51:42 36° E 01:53:41 27° SE
SL-16 R/B 3.9 01:57:26 24° NW 01:57:26 24° NW 02:00:26 10° NNW
IRS-1C 4.4 01:49:57 10° NNE 01:55:17 62° ESE 01:55:57 57° SE
Cosmos 1241 Rocket 4.4 01:54:48 67° WNW 01:55:17 70° NW 02:01:45 10° NE
Cosmos 1606 4.3 01:59:13 31° NNE 01:59:13 31° NNE 02:01:18 10° N
ATLAS CENTAUR R/B 4.5 01:42:18 10° W 01:59:46 57° NNW 02:06:04 10° ENE
Cosmos 1151 Rocket 3.6 02:00:38 54° ENE 02:00:38 54° ENE 02:04:36 10° NNE
ARIANE 5 R/B 3.0 01:55:50 10° NNE 02:00:52 53° E 02:01:50 46° SE
IRS-1D 3.5 01:56:34 10° NNE 02:01:47 73° NW 02:01:47 73° NW
CZ-2D R/B 3.0 01:57:53 10° N 02:02:04 36° NW 02:02:04 36° NW
ATLAS 5 CENTAUR R/B 2.6 02:07:56 39° NNW 02:07:56 39° NNW 02:12:11 10° NE
NPP 4.3 02:03:54 10° N 02:08:28 40° NW 02:08:28 40° NW
CBERS-1 4.1 02:09:03 10° N 02:13:59 62° WNW 02:13:59 62° WNW
Cosmos 2297 Rocket 4.0 02:09:06 10° NW 02:10:32 17° NW 02:10:32 17° NW
Resurs 1-4 Rocket 3.2 02:11:56 10° N 02:15:58 29° NW 02:15:58 29° NW
Cosmos 1933 3.7 02:18:15 62° N 02:18:15 62° N 02:21:42 10° N
Cosmos 2082 3.6 02:13:05 10° NNW 02:18:46 69° WSW 02:20:23 46° S
USA 305 3.7 02:22:42 42° SE 02:22:42 42° SE 02:26:32 10° ENE
Meteor 1-26 Rocket 4.4 02:24:04 33° S 02:26:29 67° E 02:31:52 10° NNE
USA 306 3.5 02:26:37 45° SE 02:26:37 45° SE 02:30:38 10° ENE
X-37B 3.0 02:29:08 18° ESE 02:29:08 18° ESE 02:30:13 10° ESE
CZ-2D R/B 3.7 02:23:48 10° NNE 02:27:59 66° ESE 02:28:45 53° SSE
SJ 16-02 3.0 02:24:54 10° N 02:28:55 34° ENE 02:32:56 10° SE
Meteor 1-25 Rocket 4.2 02:24:47 10° NNW 02:30:36 71° W 02:33:00 36° S
Gbstr 26 Del rocket 4.4 02:27:26 25° WNW 02:32:42 85° NNE 02:40:15 10° ESE
Cosmos 389 Rocket 3.6 02:32:18 37° SE 02:32:58 41° E 02:36:21 10° NNE
ASTEX 1 3.5 02:29:00 10° N 02:34:02 78° E 02:36:22 32° S
Cosmos 1697 Rocket 2.6 02:32:34 49° SSW 02:34:11 89° ESE 02:39:51 10° NNE
IRS-P3 4.1 02:29:09 10° N 02:34:26 63° WNW 02:35:28 52° WSW
H-2A R/B 2.7 02:33:04 10° SSE 02:37:21 59° ENE 02:41:46 10° N
CZ-2C R/B 4.2 02:33:28 10° NNE 02:38:00 31° E 02:42:34 10° SSE
Cosmos 1980 Rocket 2.7 02:35:19 27° S 02:38:19 56° ESE 02:43:52 10° NE
CZ-4C R/B 4.4 02:33:51 10° NW 02:39:14 27° NNE 02:45:25 10° ENE
USA 267 3.2 02:32:53 10° ENE 02:39:28 87° NNW 02:42:17 38° WSW
ERS-2 3.8 02:37:27 10° SE 02:40:48 34° ENE 02:44:10 10° N
Iridium 2 4.1 02:39:48 40° SSE 02:40:53 59° E 02:44:36 10° NNE
Cosmos 1602 3.6 02:39:41 10° NNW 02:43:13 69° NW 02:43:13 69° NW
ERS-1 4.5 02:39:04 10° N 02:44:10 68° WNW 02:45:42 45° SW
Cosmos 2263 Rocket 2.7 02:39:26 10° NNW 02:45:03 60° ENE 02:50:39 10° SE
SL-8 R/B 3.6 02:46:01 54° WSW 02:46:48 64° SSW 02:51:31 10° ESE
Helios 1B 4.5 02:43:13 14° SSE 02:46:58 90° W 02:51:20 10° NNW
Meteor 1-14 Rocket 4.1 02:41:42 10° NNW 02:47:23 87° W 02:52:56 10° S
Cosmos 1818 4.4 02:46:11 32° WNW 02:47:43 39° NW 02:52:50 10° NNE
ATLAS 2AS CENTAUR R/B 4.0 02:44:10 10° NW 02:51:30 44° NNE 02:58:18 10° E
SL-16 R/B 4.3 02:47:22 10° SSE 02:51:45 24° ESE 02:56:09 10° NE
USA 307 3.0 02:52:25 49° SSW 02:53:18 64° SSE 02:57:32 10° ENE
Cosmos 1821 Rocket 4.2 02:47:49 10° NNW 02:53:48 47° W 02:56:29 30° SW
Cosmos 1470 Rocket 3.8 02:51:01 10° NNW 02:55:16 46° W 02:55:25 46° W
Cosmos 2227 4.3 02:50:21 10° NNW 02:56:03 75° ENE 03:01:41 10° SE
Cosmos 1812 4.1 02:52:38 10° SSE 02:56:12 38° E 02:59:47 10° NNE
USA 308 3.0 02:55:23 48° SSW 02:56:24 67° SSE 03:00:38 10° ENE
Spot 4 Rocket 3.9 02:51:55 10° NNE 02:57:04 76° WNW 02:59:44 29° SSW
Cosmos 1500 3.4 02:56:28 10° N 03:00:20 69° ENE 03:04:09 10° SSE
Cosmos 972 4.5 02:59:29 21° S 03:02:53 77° ESE 03:07:46 10° NNE
Landsat 5 3.5 03:00:54 10° S 03:05:25 76° WSW 03:09:56 10° NNW
Cosmos 1666 4.2 03:02:33 10° N 03:06:10 38° ENE 03:09:43 10° SE
Meteor 1-5 Rocket 4.2 03:01:30 10° N 03:06:50 78° ENE 03:12:12 10° SSE
Cosmos 1934 Rocket 3.9 03:03:01 10° NNW 03:08:56 58° W 03:14:52 10° S
Cosmos 1238 Rocket 4.0 03:04:37 10° NNW 03:11:11 64° W 03:17:21 10° S
Cosmos 1782 3.0 03:10:11 39° SW 03:11:16 51° WNW 03:15:14 10° N
Cosmos 1898 Rocket 4.1 03:08:36 10° NNW 03:13:48 61° ENE 03:19:01 10° SE
Lacrosse 5 1.8 03:12:00 31° WSW 03:14:27 83° NNW 03:19:33 10° ENE
ADEOS Rocket 3.4 03:09:11 10° SSE 03:16:01 75° ENE 03:22:09 10° NNW
CZ-4B R/B 2.7 03:13:10 10° SE 03:16:08 39° ENE 03:19:11 10° N
USA 234 3.6 03:10:06 10° SSE 03:16:14 42° SW 03:22:23 10° WNW
Cosmos 1515 Rocket 3.9 03:15:08 31° SW 03:16:50 47° WNW 03:21:09 10° N
CZ-2C R/B 2.7 03:13:07 10° N 03:16:51 61° WNW 03:18:32 30° SW
ADEOS II 3.4 03:14:03 10° N 03:18:03 23° WNW 03:19:23 20° W
IRIDIUM 114 4.3 03:14:57 10° N 03:20:13 86° E 03:25:27 10° S
USA 276 2.0 03:21:38 42° WSW 03:22:36 87° SSE 03:25:50 10° E
USA 32 4.5 03:19:07 10° N 03:24:22 66° E 03:29:35 10° SSE
Cosmos 972 Rocket 4.5 03:24:15 25° WSW 03:26:26 38° WNW 03:31:04 10° N
MSX 3.9 03:21:52 10° N 03:27:34 60° WNW 03:32:40 13° SW
Cosmos 1356 4.0 03:24:36 10° NNW 03:27:46 34° W 03:28:27 30° WSW
Cosmos 44 3.1 03:24:49 21° SSW 03:27:49 82° SE 03:32:32 10° NE
IRIDIUM 103 4.2 03:24:07 10° N 03:29:22 80° W 03:34:34 10° S
Cosmos 1707 Rocket 4.5 03:26:03 10° S 03:30:13 50° E 03:34:26 10° NNE
IDEFIX/ARIANE 42P 3.2 03:26:27 10° N 03:31:18 39° WNW 03:34:28 20° WSW
Cosmos 921 Rocket 2.9 03:27:48 12° SSW 03:31:37 87° ESE 03:35:49 10° NNE
Cosmos 1605 Rocket 4.1 03:25:26 10° NNW 03:31:43 61° W 03:38:01 10° S
Meteor 1-11 Rocket 3.9 03:26:07 10° N 03:31:59 82° ENE 03:37:41 10° SSE
Cosmos 2278 3.8 03:28:10 20° SW 03:32:10 60° WNW 03:37:50 10° NNE
Cosmos 1933 Rocket 4.4 03:28:46 10° NNW 03:32:31 28° W 03:34:17 21° SW
CZ-3B R/B 3.1 03:32:05 20° W 03:34:26 58° N 03:45:42 10° ENE
Cosmos 2228 Rocket 3.1 03:31:12 14° SSW 03:34:57 57° WNW 03:39:19 10° N
SAR-Lupe-4 4.0 03:34:13 10° SSE 03:37:47 66° ENE 03:41:22 10° N
ARIANE 5 R/B 3.6 03:35:28 10° N 03:39:40 26° WNW 03:42:10 18° W
Cosmos 2369 4.4 03:36:41 19° WSW 03:40:17 40° NW 03:45:41 10° NNE
Cosmos 1937 Rocket 3.7 03:37:47 10° NNW 03:42:58 75° ENE 03:48:06 10° SSE
CZ-4C R/B 4.1 03:42:39 18° SW 03:44:20 25° W 03:47:22 10° NW
ALOS 3.3 03:42:05 10° NNE 03:46:38 49° E 03:51:10 10° S
Cosmos 1733 Rocket 3.7 03:42:28 10° N 03:46:49 60° ENE 03:51:06 10° SSE
IRIDIUM 106 4.4 03:42:32 10° N 03:47:39 57° W 03:52:45 10° SSW
Meteor 1-27 Rocket 4.1 03:42:27 10° S 03:48:21 73° E 03:54:16 10° NNE
SAR-Lupe-1 4.1 03:46:31 10° SSE 03:50:05 87° ENE 03:53:41 10° NNW
Cosmos 1536 2.9 03:46:29 10° N 03:50:36 86° E 03:54:40 10° S
Cosmos 1869 Rocket 3.9 03:47:31 10° NNW 03:51:38 42° W 03:55:42 10° SSW
ATLAS 5 CENTAUR R/B 3.8 03:50:17 10° NW 03:53:35 19° N 03:57:14 10° NE
Cosmos 1484 Rocket 3.4 03:51:33 10° NNE 03:55:30 61° E 03:59:28 10° S
GENESIS II 4.4 03:51:57 10° SSW 03:55:58 76° SE 04:00:02 10° NE
Meteor 1-4 Rocket 2.4 03:53:44 10° SSW 03:57:10 62° WNW 04:00:40 10° N
USA 305 3.1 03:58:51 14° W 04:02:27 64° NNW 04:06:41 10° ENE
X-37B 1.7 04:01:25 15° WSW 04:03:35 30° S 04:06:27 10° SE
Cosmos 1862 Rocket 4.4 03:59:43 10° S 04:04:01 56° E 04:08:18 10° NNE
Cosmos 1689 Rocket 2.4 04:01:36 10° SSE 04:04:32 68° ENE 04:07:31 10° N
Meteor 1-31 Rocket 3.2 04:02:28 10° NNE 04:06:17 65° ESE 04:10:05 10° S
Cosmos 2100 Rocket 4.0 04:00:00 10° NNW 04:06:24 79° W 04:12:45 10° S
USA 306 3.1 04:02:46 13° W 04:06:32 62° NNW 04:10:46 10° ENE
SJ 16-02 2.1 04:03:36 10° NW 04:07:27 31° WSW 04:11:18 10° SSW
Cosmos 1727 Rocket 4.1 04:01:21 10° SSW 04:07:39 64° WNW 04:13:57 10° N
Cosmos 1763 Rocket 3.6 04:02:21 10° SSW 04:07:41 89° ESE 04:13:02 10° NNE
Cosmos 389 Rocket 4.2 04:06:11 12° W 04:07:54 16° WNW 04:10:15 10° NNW
PSLV R/B 4.0 04:04:48 10° N 04:08:45 38° WNW 04:12:38 10° SW
Cosmos 1802 Rocket 4.1 04:02:32 10° N 04:08:45 85° E 04:15:01 10° S
Cosmos 2360 Rocket 3.5 04:07:03 10° S 04:12:22 43° ESE 04:17:42 10° NE
H-2A R/B 3.5 04:10:43 10° SW 04:13:43 18° W 04:16:46 10° NW
ERS-2 3.4 04:11:34 10° SSW 04:14:27 21° W 04:17:20 10° NW
CZ-2C R/B 2.9 04:11:32 10° N 04:16:20 43° WNW 04:21:11 10° SW
Cosmos 1697 Rocket 4.1 04:14:34 10° W 04:18:56 23° NW 04:23:20 10° NNE
NOSS 3-4 (A) 3.9 04:12:01 10° NW 04:18:57 81° SW 04:26:40 10° SE
NOSS 3-4 (C) 3.9 04:12:07 10° NW 04:19:03 82° SW 04:26:46 10° SE
METEOR-M 4.3 04:15:21 10° NNE 04:20:45 82° ESE 04:26:07 10° SSW
USA 267 3.8 04:15:55 10° ENE 04:22:12 52° N 04:28:30 10° W
Cosmos 1980 Rocket 3.1 04:17:36 10° WSW 04:22:39 32° NW 04:27:43 10° NNE
FENGYUN 3A 3.7 04:18:40 10° NNE 04:24:05 81° WNW 04:29:30 10° SSW
Cosmos 2278 Rocket 4.5 04:19:33 10° NNW 04:24:10 25° NE 04:28:44 10° E
Cosmos 1844 4.2 04:19:30 10° NNW 04:25:05 66° ENE 04:30:36 10° SE
Cosmos 2322 Rocket 2.3 04:21:56 10° SSW 04:27:37 88° WNW 04:33:22 10° NNE
Cosmos 1459 Rocket 4.0 04:22:07 10° NNW 04:28:07 60° W 04:34:02 10° S
SJ-12 4.3 04:24:22 10° NNE 04:28:31 72° ESE 04:32:38 10° S
Cosmos 2263 Rocket 3.1 04:23:58 10° NW 04:28:35 26° WSW 04:33:13 10° SSW
CZ-4C R/B 3.7 04:22:36 10° NW 04:29:16 53° NE 04:37:06 10° ESE
NOSS 3-3 (A) 4.1 04:23:50 10° WSW 04:29:43 64° NW 04:36:28 10° NE
NOSS 3-3 (C) 4.1 04:24:01 10° WSW 04:29:50 64° NW 04:36:33 10° NE
Cosmos 468 Rocket 4.2 04:27:12 10° SW 04:32:24 55° WNW 04:37:36 10° NNE
Cosmos 2123 Rocket 4.3 04:26:13 10° S 04:32:26 76° E 04:38:45 10° NNE
